Theta_e
350 350 350 350 352 353 352 352 350 350 348 346 347 341 343 349 348 350 349 353 354 354 354 354 354 353 353 349 350 352 353 352 351 351 351 350 348 347 350 349 345 347 350
353 352 348 351 351 352 352 349 349 348 347 342 338 344 347 350 352 351 352 354 355 355 355 353 350 350 351 349 349 348 348 345 344 351 348 348 350 349 349 345 344 347 350
352 351 349 345 351 352 351 349 346 347 345 350 349 350 351 352 352 354 352 355 354 355 354 352 349 351 351 351 352 352 350 341 346 344 346 343 347 351 347 342 344 349 349
353 352 346 346 347 345 346 348 347 344 348 347 348 352 350 353 353 354 353 350 355 353 351 349 354 354 352 349 347 347 340 340 342 344 348 345 346 350 343 339 340 341 344
351 352 347 342 342 345 344 348 347 348 351 352 352 350 350 352 354 354 354 354 353 351 351 352 351 350 350 351 350 345 340 343 344 346 348 346 346 347 344 345 343 348 347
351 350 346 342 341 342 347 346 343 348 348 346 345 346 348 350 351 353 353 353 352 352 352 352 351 353 351 347 351 348 341 344 347 342 344 347 347 345 347 350 348 346 339
350 347 344 343 344 350 350 343 341 347 348 349 350 352 353 353 353 351 350 349 349 352 351 353 353 352 350 350 350 346 344 346 350 343 344 345 345 347 347 340 347 348 342
348 345 346 342 342 346 349 350 344 344 350 349 353 351 347 349 351 350 352 348 349 349 351 352 352 352 348 346 346 344 345 349 343 342 345 344 341 343 340 342 334 339 342
346 346 345 340 335 335 336 340 339 343 345 342 341 342 344 341 345 346 349 348 344 350 351 350 347 348 345 344 344 343 342 345 345 342 343 346 334 345 348 342 344 344 344
346 348 346 340 334 336 339 336 341 340 342 347 345 339 341 345 345 348 346 345 350 349 346 344 343 341 342 343 343 343 348 347 349 346 344 344 339 334 336 336 333 341 346
348 347 346 342 337 335 337 332 338 342 345 343 344 336 350 349 350 350 342 342 344 342 341 336 336 338 340 342 342 341 345 352 346 344 351 346 346 339 335 336 333 332 331
348 348 347 343 338 339 337 338 343 347 349 348 350 348 350 351 348 347 347 342 344 340 345 342 342 331 333 344 347 339 347 347 347 343 350 345 345 346 338 337 336 332 333
344 342 341 338 341 339 340 336 341 346 349 350 351 350 351 350 352 349 349 352 350 350 350 351 352 350 343 342 344 345 346 342 347 348 349 346 345 345 346 338 338 337 335
346 346 344 343 345 341 340 346 349 349 347 351 349 351 353 349 351 348 349 349 349 349 349 345 347 348 345 344 342 344 345 346 347 347 349 348 345 345 345 344 339 336 336
345 345 347 345 346 351 350 346 349 349 349 350 351 350 351 352 351 350 350 350 351 351 351 350 349 348 349 346 343 340 340 344 345 347 349 349 347 345 344 345 344 339 340
346 347 346 348 349 352 351 351 351 352 351 351 352 354 355 353 352 352 351 352 351 352 354 353 351 350 348 347 344 343 342 341 343 346 347 349 348 346 345 343 344 345 340
347 347 349 349 350 351 352 353 353 352 350 349 349 352 355 355 352 351 352 350 351 354 353 353 354 352 350 348 348 348 345 344 343 346 348 347 347 347 347 345 343 342 344
346 347 349 349 351 352 352 353 351 350 350 349 349 350 352 355 354 353 351 352 353 352 350 354 354 353 351 349 349 348 345 345 344 344 347 348 348 346 346 346 345 345 342
346 348 350 349 349 352 353 353 354 354 353 350 348 348 349 352 353 354 352 352 355 354 355 354 353 353 352 351 351 349 348 347 344 344 345 346 347 347 346 343 346 345 345
347 349 351 351 351 352 353 354 354 353 354 353 352 351 351 351 353 355 353 353 356 355 355 354 354 353 353 352 351 349 348 347 346 345 345 344 344 346 346 345 346 350 347
346 348 351 352 352 353 353 352 351 351 352 352 352 353 354 354 354 355 354 352 353 353 354 353 355 353 354 351 353 352 350 349 346 346 345 346 346 346 347 347 347 347 347
348 349 350 351 353 355 353 353 351 351 350 351 353 355 356 357 357 357 355 354 354 355 353 354 354 354 353 352 351 351 354 349 349 347 346 347 348 348 348 348 347 348 349
349 352 354 355 353 354 353 351 353 355 355 354 354 356 356 358 358 357 357 356 355 353 355 353 352 352 354 352 351 351 353 349 349 346 347 347 347 348 348 349 349 349 350
350 351 353 357 358 357 357 354 354 355 354 353 355 355 358 357 355 357 356 355 356 354 354 352 353 352 352 354 351 350 352 352 354 354 346 345 347 351 351 350 350 350 351
350 351 353 357 360 359 358 359 357 358 355 350 349 357 356 356 360 358 356 356 358 355 355 358 355 355 354 354 353 353 351 352 351 352 353 350 346 346 347 351 352 352 350
351 351 353 358 360 362 361 362 362 360 358 353 351 346 345 343 341 348 352 355 355 354 352 352 353 355 355 354 354 354 353 352 354 352 354 353 352 350 346 345 347 347 349
Wind_Speed
14 20 24 26 26 28 29 28 29 28 29 29 27 25 23 23 22 21 22 20 19 21 21 20 19 17 16 18 15 16 17 17 16 16 17 16 16 17 13 8 13 12 13
18 22 26 26 27 28 27 28 28 28 28 28 27 23 21 21 21 20 20 17 19 20 19 19 19 17 16 15 14 15 14 14 15 15 18 16 13 13 13 16 16 13 12
21 23 25 29 25 26 26 27 28 27 28 24 24 22 21 21 21 18 18 17 18 18 17 17 19 20 17 14 13 13 13 12 13 15 18 16 12 12 12 11 12 12 12
20 22 27 27 26 26 28 25 26 26 23 22 22 20 20 19 21 18 16 16 17 16 17 17 17 19 17 15 14 13 10 10 7 6 9 16 12 11 11 11 11 10 11
20 22 25 27 26 24 25 24 26 24 23 23 23 22 20 19 19 17 17 16 15 14 15 15 17 19 17 16 14 11 10 9 7 8 13 14 12 8 10 12 11 10 8
20 22 23 25 25 23 23 22 24 23 24 23 22 22 20 19 18 15 16 15 14 13 14 13 14 16 16 13 10 9 5 1 4 11 13 12 13 8 7 7 8 8 7
22 24 23 22 22 20 21 21 21 22 21 21 20 18 18 18 17 16 14 14 14 13 13 13 11 11 11 10 9 8 6 7 3 9 8 11 9 9 6 6 7 7 6
26 23 22 24 20 16 17 18 18 18 18 17 16 16 16 16 15 14 14 13 12 11 11 10 8 8 8 8 8 8 4 2 5 8 8 10 7 7 6 5 5 5 5
25 26 27 29 23 17 17 11 14 15 15 14 14 13 13 14 13 12 12 13 11 7 8 7 6 4 5 5 6 7 6 6 7 7 8 10 6 5 3 3 4 3 3
24 22 24 27 27 21 12 10 5 8 9 7 8 9 11 12 13 13 12 11 10 6 5 4 4 2 2 3 4 4 3 5 6 8 11 8 4 2 3 3 3 4 4
23 24 26 24 25 22 13 21 9 5 6 4 4 7 7 6 5 8 5 7 6 5 4 3 0 2 2 0 2 2 6 11 3 2 12 8 2 2 2 2 2 3 5
19 19 23 23 27 25 21 14 10 7 5 4 3 2 3 6 2 6 3 5 4 3 2 3 4 1 3 8 8 2 6 7 4 3 8 5 4 2 2 3 3 3 5
23 22 20 22 19 18 16 16 11 7 5 3 3 2 3 1 1 2 2 1 3 5 1 5 3 6 1 6 2 4 5 5 5 7 4 4 4 2 4 4 5 5 6
25 22 25 19 19 19 16 13 8 6 6 9 6 2 2 0 1 2 3 3 2 1 2 3 4 6 4 4 6 8 7 10 5 7 2 3 5 4 4 5 6 7 7
20 19 25 20 17 14 14 13 9 5 3 3 4 4 3 2 3 3 2 3 3 3 4 3 3 4 5 6 6 8 9 11 10 9 9 7 3 4 5 7 8 9 8
19 19 18 17 15 13 10 8 8 7 10 6 7 6 7 6 4 4 3 5 5 4 4 4 4 5 6 7 8 9 10 11 12 11 11 11 9 8 9 10 10 11 13
15 16 17 17 16 15 12 10 9 9 8 8 6 5 6 5 6 6 6 7 7 4 3 6 5 7 7 7 9 12 12 13 15 14 15 13 14 16 15 12 11 13 14
17 15 14 14 14 13 11 10 9 9 8 8 8 7 6 6 7 8 8 7 7 7 6 7 7 8 8 9 10 12 14 15 13 16 16 16 15 18 15 16 17 14 15
17 16 15 14 13 12 11 10 9 7 8 9 9 9 8 8 9 9 9 10 8 8 9 8 10 11 11 10 12 13 16 16 16 17 18 19 18 20 19 20 19 17 18
18 17 16 15 14 13 11 11 10 10 10 9 9 9 8 9 9 9 11 12 8 11 10 11 12 11 12 13 14 16 18 17 18 18 18 19 21 21 22 23 18 17 22
18 18 17 17 16 15 15 14 13 12 13 12 12 10 9 10 11 12 13 13 14 15 15 13 13 15 15 15 14 15 16 17 20 23 21 20 19 19 19 21 21 21 21
20 19 19 19 19 19 16 15 12 9 10 9 8 8 9 12 13 14 14 14 17 17 15 13 13 15 17 16 15 15 9 12 22 24 22 16 15 17 18 20 22 21 22
21 21 20 20 20 19 18 13 11 10 12 13 14 10 11 12 11 12 14 16 19 17 20 17 17 17 18 17 16 11 6 9 9 8 16 16 17 16 16 17 19 19 22
22 21 20 19 18 17 15 14 12 12 7 12 11 4 8 8 10 13 14 14 15 18 20 19 19 18 17 19 17 18 23 20 2 4 23 18 14 18 22 22 23 24 20
21 21 21 20 18 17 17 16 13 12 10 8 3 1 7 11 10 7 7 10 13 14 15 16 19 18 19 20 21 22 20 21 19 13 10 19 22 24 27 27 25 26 25
21 20 20 20 19 17 17 16 15 12 9 6 4 6 8 9 9 6 5 8 10 15 18 18 19 19 20 21 22 24 23 14 14 16 13 19 21 23 25 27 24 25 26
Wind_Direction
112 115 116 115 116 115 115 115 117 113 114 115 113 113 107 104 102 106 102 103 104 106 108 104 101 101 101 95 102 101 97 97 99 103 102 100 101 101 93 104 104 94 94
124 123 122 119 117 119 118 117 120 116 114 115 116 112 107 107 105 106 102 103 103 104 105 104 101 100 95 101 100 98 97 108 113 117 109 103 100 97 92 98 97 104 101
124 128 125 122 121 121 119 117 118 115 113 108 108 106 104 105 104 101 101 102 104 102 103 102 102 99 97 97 95 98 99 108 116 127 119 91 100 94 99 95 100 103 104
126 131 129 127 121 120 119 119 118 116 113 111 108 103 99 100 100 100 98 100 98 98 101 103 101 98 95 92 86 88 91 102 113 170 199 100 93 98 98 99 100 99 99
124 132 135 131 124 121 125 116 117 114 111 107 106 102 97 94 93 95 94 93 91 98 100 104 101 99 94 89 81 84 100 85 52 27 88 82 100 94 96 88 97 97 116
117 122 127 130 127 124 126 117 116 113 110 105 100 94 92 89 89 90 93 92 93 97 101 99 100 98 98 90 72 67 90 65 75 81 96 82 92 93 100 91 109 112 109
108 117 122 126 121 122 118 121 120 114 109 103 97 94 87 88 88 86 91 95 95 99 102 101 100 94 91 78 66 58 91 69 41 96 86 85 100 109 96 107 106 108 105
112 119 119 123 117 115 106 110 114 115 111 104 98 89 87 88 86 88 89 90 97 101 104 100 87 89 87 76 65 59 101 127 90 93 108 97 98 101 96 114 117 126 118
123 124 125 133 135 119 110 106 110 115 114 104 88 84 86 86 90 85 90 90 91 103 106 106 99 93 79 71 57 56 92 117 131 103 109 96 65 106 120 105 129 124 123
128 131 130 135 135 130 134 159 126 133 127 109 89 82 79 73 81 80 82 89 90 86 96 118 124 138 77 49 23 45 169 197 225 131 129 83 48 109 144 157 165 185 188
120 129 129 136 142 145 151 144 148 184 172 141 76 85 93 71 95 104 106 91 94 84 84 82 147 223 237 241 47 348 262 280 183 9 117 56 19 134 145 173 186 191 208
128 135 137 142 146 153 159 171 183 180 183 159 143 118 4 75 60 93 64 64 74 52 70 63 54 223 250 254 189 205 284 258 354 315 115 45 12 235 198 205 217 218 222
130 134 136 141 153 158 169 176 186 193 170 176 160 168 58 62 10 85 325 232 337 324 347 252 217 220 173 304 272 296 324 263 329 321 65 40 340 289 234 225 235 243 241
144 145 147 156 161 168 173 177 191 190 198 210 171 189 214 236 243 13 10 8 311 277 345 347 341 8 310 291 281 291 281 284 2 303 172 323 339 285 259 243 241 242 247
132 143 148 156 165 170 177 175 204 211 192 208 263 228 247 266 289 289 333 289 290 295 309 285 264 286 299 279 268 268 266 273 291 290 312 285 302 286 279 258 250 250 248
148 153 149 162 172 177 183 196 219 230 244 242 235 222 214 232 256 283 278 288 288 255 261 271 279 282 276 284 279 272 270 267 267 275 265 281 262 280 273 264 260 255 252
163 162 157 172 179 188 202 219 231 242 245 251 246 235 237 248 256 249 265 264 263 291 248 250 265 267 268 268 274 275 270 266 269 273 268 262 270 262 255 262 256 260 255
170 172 174 181 181 191 198 210 229 237 247 249 254 255 237 248 253 258 261 262 265 269 255 258 256 257 263 276 270 276 278 275 260 260 266 264 264 274 258 254 254 258 262
178 178 184 188 189 194 204 216 226 237 246 254 259 260 256 256 254 255 264 268 241 260 260 258 258 261 270 266 269 269 261 264 266 262 253 255 257 262 269 276 264 252 266
183 187 193 197 201 201 210 221 234 239 245 250 252 256 258 256 253 254 263 264 252 260 256 257 259 257 261 268 272 273 267 271 269 263 257 257 258 251 255 261 261 258 264
186 190 195 201 203 207 214 221 225 237 233 240 237 235 257 258 256 253 259 264 257 252 243 238 252 254 257 258 266 271 273 261 260 257 256 258 260 256 254 260 253 256 261
188 195 199 204 206 209 215 224 242 259 262 272 265 262 258 256 259 261 267 270 268 285 287 262 258 262 259 261 250 292 275 263 240 237 239 247 269 273 272 259 258 251 251
195 197 200 204 207 211 221 221 230 246 256 256 239 243 259 249 259 269 274 271 278 277 274 275 266 261 264 263 253 238 281 280 323 234 224 237 244 242 255 256 248 251 251
200 199 203 205 208 210 213 225 227 250 272 281 285 311 303 291 275 272 279 281 284 281 277 280 279 276 270 268 268 252 252 264 280 291 277 272 267 239 242 250 251 249 252
198 198 199 202 206 209 211 222 227 233 260 260 339 285 265 262 237 248 269 289 292 290 288 287 284 279 274 270 271 276 261 259 254 244 270 269 275 260 255 241 232 235 244
195 196 194 195 202 206 210 217 226 248 246 277 352 336 296 340 319 251 291 305 307 305 301 298 295 285 277 270 267 269 268 257 248 242 249 262 267 273 275 274 252 248 240